TimeCDT,TemperatureF,Dew PointF,Humidity,Sea Level PressureIn,VisibilityMPH,Wind Direction,Wind SpeedMPH,Gust SpeedMPH,PrecipitationIn,Events,Conditions,WindDirDegrees,DateUTC
12:15 AM,73.4,50.0,44,30.12,10.0,ENE,3.5,-,N/A,,Clear,60,2013-09-01 05:15:00
12:35 AM,68.0,48.2,49,30.12,10.0,Calm,Calm,-,N/A,,Clear,0,2013-09-01 05:35:00
12:55 AM,66.2,48.2,52,30.12,10.0,NW,5.8,-,N/A,,Clear,320,2013-09-01 05:55:00
1:15 AM,64.4,48.2,56,30.12,10.0,NNW,4.6,-,N/A,,Clear,340,2013-09-01 06:15:00
1:35 AM,64.4,48.2,56,30.12,10.0,NW,5.8,-,N/A,,Clear,310,2013-09-01 06:35:00
1:55 AM,64.4,48.2,56,30.12,10.0,NW,9.2,-,N/A,,Clear,320,2013-09-01 06:55:00
2:15 AM,64.4,50.0,59,30.11,10.0,NW,8.1,-,N/A,,Clear,320,2013-09-01 07:15:00
2:35 AM,62.6,48.2,59,30.11,10.0,West,3.5,-,N/A,,Clear,280,2013-09-01 07:35:00
2:55 AM,62.6,48.2,59,30.12,10.0,Calm,Calm,-,N/A,,Clear,0,2013-09-01 07:55:00
3:15 AM,60.8,50.0,68,30.12,10.0,NW,3.5,-,N/A,,Clear,320,2013-09-01 08:15:00
3:35 AM,60.8,50.0,68,30.12,10.0,Calm,Calm,-,N/A,,Clear,0,2013-09-01 08:35:00
3:55 AM,60.8,48.2,63,30.11,10.0,Calm,Calm,-,N/A,,Clear,0,2013-09-01 08:55:00
4:15 AM,60.8,48.2,63,30.12,10.0,NNE,4.6,-,N/A,,Clear,30,2013-09-01 09:15:00
4:35 AM,59.0,48.2,67,30.11,10.0,NNE,5.8,-,N/A,,Clear,30,2013-09-01 09:35:00
4:55 AM,59.0,48.2,67,30.11,10.0,NNE,5.8,-,N/A,,Clear,20,2013-09-01 09:55:00
5:15 AM,57.2,48.2,72,30.11,10.0,North,3.5,-,N/A,,Clear,360,2013-09-01 10:15:00
5:35 AM,60.8,51.8,72,30.11,10.0,North,8.1,-,N/A,,Clear,350,2013-09-01 10:35:00
5:55 AM,60.8,51.8,72,30.12,10.0,NNE,8.1,-,N/A,,Clear,20,2013-09-01 10:55:00
6:15 AM,59.0,50.0,72,30.12,10.0,North,6.9,-,N/A,,Partly Cloudy,10,2013-09-01 11:15:00
6:35 AM,59.0,50.0,72,30.12,10.0,North,4.6,-,N/A,,Partly Cloudy,10,2013-09-01 11:35:00
6:55 AM,57.2,50.0,77,30.13,10.0,North,5.8,-,N/A,,Clear,10,2013-09-01 11:55:00
7:15 AM,57.2,51.8,82,30.13,10.0,North,4.6,-,N/A,,Clear,360,2013-09-01 12:15:00
7:35 AM,57.2,51.8,82,30.13,10.0,North,6.9,-,N/A,,Clear,350,2013-09-01 12:35:00
7:55 AM,60.8,51.8,72,30.13,10.0,North,6.9,-,N/A,,Clear,350,2013-09-01 12:55:00
8:15 AM,62.6,53.6,72,30.14,10.0,North,5.8,-,N/A,,Clear,350,2013-09-01 13:15:00
8:35 AM,66.2,53.6,64,30.14,10.0,North,5.8,-,N/A,,Clear,350,2013-09-01 13:35:00
8:55 AM,69.8,55.4,60,30.14,10.0,NNE,3.5,-,N/A,,Clear,20,2013-09-01 13:55:00
9:15 AM,73.4,55.4,53,30.14,10.0,Calm,Calm,-,N/A,,Clear,0,2013-09-01 14:15:00
9:35 AM,75.2,53.6,47,30.15,10.0,Calm,Calm,-,N/A,,Clear,0,2013-09-01 14:35:00
9:55 AM,75.2,53.6,47,30.15,10.0,SE,5.8,-,N/A,,Clear,130,2013-09-01 14:55:00
10:15 AM,78.8,53.6,42,30.15,10.0,SSE,4.6,-,N/A,,Clear,160,2013-09-01 15:15:00
10:35 AM,78.8,53.6,42,30.15,10.0,SSE,5.8,-,N/A,,Clear,160,2013-09-01 15:35:00
10:55 AM,80.6,53.6,39,30.16,10.0,Calm,Calm,-,N/A,,Clear,0,2013-09-01 15:55:00
11:15 AM,80.6,53.6,39,30.16,10.0,SW,3.5,-,N/A,,Clear,220,2013-09-01 16:15:00
11:35 AM,82.4,53.6,37,30.16,10.0,WSW,3.5,-,N/A,,Clear,240,2013-09-01 16:35:00
11:55 AM,82.4,51.8,35,30.16,10.0,Calm,Calm,-,N/A,,Clear,0,2013-09-01 16:55:00
12:15 PM,86.0,53.6,33,30.15,10.0,WSW,4.6,-,N/A,,Clear,240,2013-09-01 17:15:00
12:35 PM,86.0,51.8,31,30.15,10.0,West,5.8,-,N/A,,Clear,280,2013-09-01 17:35:00
12:55 PM,87.8,51.8,29,30.14,10.0,West,4.6,-,N/A,,Clear,270,2013-09-01 17:55:00
1:15 PM,87.8,51.8,29,30.13,10.0,NE,4.6,-,N/A,,Clear,40,2013-09-01 18:15:00
1:35 PM,87.8,50.0,27,30.13,10.0,South,5.8,18.4,N/A,,Clear,180,2013-09-01 18:35:00
1:55 PM,89.6,51.8,27,30.12,10.0,South,5.8,-,N/A,,Scattered Clouds,180,2013-09-01 18:55:00
2:15 PM,89.6,51.8,27,30.11,10.0,ESE,6.9,-,N/A,,Scattered Clouds,110,2013-09-01 19:15:00
2:35 PM,89.6,50.0,26,30.11,10.0,ESE,4.6,-,N/A,,Scattered Clouds,120,2013-09-01 19:35:00
2:55 PM,87.8,48.2,25,30.10,10.0,NE,8.1,20.7,N/A,,Scattered Clouds,50,2013-09-01 19:55:00
3:15 PM,89.6,50.0,26,30.10,10.0,East,8.1,-,N/A,,Partly Cloudy,100,2013-09-01 20:15:00
3:35 PM,91.4,50.0,24,30.09,10.0,East,8.1,-,N/A,,Mostly Cloudy,80,2013-09-01 20:35:00
3:55 PM,91.4,48.2,23,30.08,10.0,ENE,10.4,-,N/A,,Overcast,60,2013-09-01 20:55:00
4:15 PM,91.4,48.2,23,30.08,10.0,NNE,6.9,-,N/A,,Mostly Cloudy,20,2013-09-01 21:15:00
4:35 PM,91.4,48.2,23,30.07,10.0,ENE,9.2,-,N/A,,Mostly Cloudy,60,2013-09-01 21:35:00
4:55 PM,89.6,46.4,22,30.07,10.0,NNE,6.9,-,N/A,,Mostly Cloudy,20,2013-09-01 21:55:00
5:15 PM,91.4,48.2,23,30.07,10.0,East,5.8,16.1,N/A,,Partly Cloudy,80,2013-09-01 22:15:00
5:35 PM,91.4,48.2,23,30.07,10.0,SW,3.5,-,N/A,,Partly Cloudy,220,2013-09-01 22:35:00
5:55 PM,91.4,46.4,21,30.06,10.0,East,10.4,18.4,N/A,,Mostly Cloudy,90,2013-09-01 22:55:00
6:15 PM,89.6,46.4,22,30.06,10.0,NE,13.8,18.4,N/A,,Partly Cloudy,40,2013-09-01 23:15:00
6:35 PM,91.4,46.4,21,30.06,10.0,NNE,10.4,-,N/A,,Partly Cloudy,30,2013-09-01 23:35:00
6:55 PM,89.6,44.6,21,30.06,10.0,NE,11.5,-,N/A,,Partly Cloudy,50,2013-09-01 23:55:00
7:15 PM,87.8,44.6,22,30.06,10.0,NE,11.5,-,N/A,,Partly Cloudy,50,2013-09-02 00:15:00
7:35 PM,87.8,46.4,24,30.07,10.0,East,18.4,25.3,N/A,,Scattered Clouds,100,2013-09-02 00:35:00
7:55 PM,84.2,48.2,29,30.07,10.0,ESE,12.7,20.7,N/A,,Partly Cloudy,110,2013-09-02 00:55:00
8:15 PM,84.2,46.4,27,30.08,10.0,ESE,12.7,-,N/A,,Clear,110,2013-09-02 01:15:00
8:35 PM,82.4,46.4,28,30.09,10.0,ESE,13.8,20.7,N/A,,Clear,110,2013-09-02 01:35:00
8:55 PM,80.6,46.4,30,30.09,10.0,ESE,12.7,-,N/A,,Clear,120,2013-09-02 01:55:00
9:15 PM,78.8,48.2,34,30.10,10.0,ESE,10.4,-,N/A,,Clear,110,2013-09-02 02:15:00
9:35 PM,78.8,48.2,34,30.10,10.0,East,10.4,-,N/A,,Clear,100,2013-09-02 02:35:00
9:55 PM,77.0,48.2,36,30.12,10.0,East,11.5,-,N/A,,Clear,100,2013-09-02 02:55:00
10:15 PM,75.2,48.2,38,30.13,10.0,East,6.9,-,N/A,,Clear,100,2013-09-02 03:15:00
10:35 PM,73.4,48.2,41,30.14,10.0,NE,5.8,-,N/A,,Clear,50,2013-09-02 03:35:00
10:55 PM,73.4,48.2,41,30.15,10.0,NE,8.1,-,N/A,,Clear,50,2013-09-02 03:55:00
11:15 PM,71.6,50.0,46,30.16,10.0,ENE,6.9,-,N/A,,Clear,60,2013-09-02 04:15:00
11:35 PM,71.6,50.0,46,30.16,10.0,ENE,8.1,-,N/A,,Clear,60,2013-09-02 04:35:00
11:55 PM,71.6,51.8,50,30.16,10.0,NE,6.9,-,N/A,,Clear,40,2013-09-02 04:55:00